sat.trackr.live / text

‹ back to catalog

STARLINK-6234

NORAD 57331 · 2023-099D

PAYLOAD ACTIVE UNKNOWN

§ Identity

Operator
Country
US
Launch date
2023-07-16
Launch site
AFETR
Launch vehicle
Mass (kg)
RCS (m²)

Purposes: comms

External: N2YO · Heavens-Above · Gunter

§ Orbital elements

Epoch: 2026-09-20T15:28:52.876416Z

Period
94.27 min
Inclination
43.0038°
Eccentricity
0.0001755
Mean motion
15.27578239 rev/d
Perigee alt
481.9 km
Apogee alt
484.3 km
Semi-major
6,861.2 km
B*
1.9542e-5
RAAN
231.2933°
Arg perigee
272.0870°
Mean anomaly
87.9781°
Rev number
17,589

§ Raw data

STARLINK-62341 57331U 23099D   26263.64505644  .00000275  00000+0  19542-4 0  99932 57331  43.0038 231.2933 0001755 272.0870  87.9781 15.27578239175895

JSON: /api/v1/satellites/57331 · /tle

For live sub-satellite position, see the globe view (requires WebGL).

§ Visibility from observer

Set your observer location to see the next 7 days of passes ≥ 10°. The values pass through the URL so the page stays shareable.

No JS? Fill the form by hand. The geolocation button needs JavaScript.